Flag for Colombia Weather past 2 weeks in Santa Marta, Colombia

Now
86 °F

Passing clouds.


Feels Like: 95 °F
Forecast: 82 / 90 °F
Wind: 5 mph from North

Location: Santa Marta / Simon Bolivar

Current Time: Aug 1, 2015 at 7:36:08 PM

Latest Report: Aug 1, 2015 at 7:00 PM


Visibility: N/A

Pressure: 29.77 "Hg

Humidity: 70%

Dew point: 75 °F

Location of Santa MartaLocation

Historic Weather in Santa Marta — Graph

°F

Santa Marta temperature yesterday

Maximum temperature yesterday: 95 °F (at 2:00 PM)
Minimum temperature yesterday: 81 °F (at 6:00 AM)
Average temperature yesterday: 86 °F

Past Weeks' High & Low Weather Summary

 TemperatureHumidityPressure
High99 °F (Jul 26, 3:00 PM)100% (Jul 23, 7:00 PM)29.98 "Hg (Jul 23, 7:00 PM)
Low77 °F (Jul 23, 7:00 PM)42% (Jul 25, 5:00 PM)29.70 "Hg (Jul 26, 3:00 PM)
Average86 °F70%29.84 "Hg
* Reported Jul 17 6:00 PM — Aug 1 6:00 PM, Santa Marta, Weather by CustomWeather, © 2015

Note: Actual official high and low records may vary slightly from our data, if they occured in-between our weather recording intervals... More about our weather records

Advertising

Santa Marta weather history for previous 24 hours

 ConditionsComfort  
Time TempWeatherWind HumidityBarometerVisibility
6:00 PM
Sat, Aug 1
86 °FScattered clouds.5 mph75%29.77 "HgN/A
5:00 PM84 °FScattered clouds.7 mph84%29.86 "HgN/A
4:00 PM91 °FThunderstorms. Scattered clouds.12 mph59%29.76 "HgN/A
3:00 PM88 °FThunderstorms. Scattered clouds.5 mph62%29.80 "HgN/A
2:00 PM88 °FThunderstorms. Scattered clouds.12 mph70%29.81 "HgN/A
1:00 PM88 °FScattered clouds.5 mph70%29.84 "HgN/A
12:00 PM86 °FScattered clouds.7 mph75%29.80 "HgN/A
11:00 AM86 °FScattered clouds.9 mph79%29.80 "HgN/A
10:00 AM82 °FScattered clouds.7 mph84%29.83 "HgN/A
9:00 AM82 °FScattered clouds.7 mph84%29.83 "HgN/A
8:00 AM82 °FScattered clouds.7 mph84%29.80 "HgN/A
7:00 AM81 °FScattered clouds.7 mph84%29.80 "HgN/A
6:00 AM79 °FPartly sunny.5 mph94%29.77 "HgN/A
11:00 PM
Fri, Jul 31
82 °FPassing clouds.16 mph79%29.84 "HgN/A
10:00 PM82 °FPassing clouds.16 mph79%29.85 "HgN/A
9:00 PM82 °FPassing clouds.12 mph74%29.86 "HgN/A
8:00 PM82 °FPassing clouds.9 mph79%29.86 "HgN/A
7:00 PM81 °FPassing clouds.No wind79%29.86 "HgN/A
Weather by CustomWeather, © 2015

See weather overviewHow to use our weather pages